Weather reports worldwide

Advertisment
Shap, United Kingdom (3225): temperature & dewpoint: 15.11.2017 13:00:00 - 21.11.2017 13:00:00 (GMT)Shap, United Kingdom (3225): wind speed & gusts: 15.11.2017 13:00:00 - 21.11.2017 13:00:00 (GMT)Shap, United Kingdom (3225): wind direction: 15.11.2017 13:00:00 - 21.11.2017 13:00:00 (GMT)Shap, United Kingdom (3225): reduced air pressure: 15.11.2017 13:00:00 - 21.11.2017 13:00:00 (GMT)Shap, United Kingdom (3225): visibility: 15.11.2017 13:00:00 - 21.11.2017 13:00:00 (GMT)Shap, United Kingdom (3225): precipitation: 15.11.2017 13:00:00 - 21.11.2017 13:00:00 (GMT)
Date & Time tt [°C] td [°C] ff [km/h] ff [kn] fx [km/h] fx [kn] dd ppp [hPa] vv [km] rr [mm]
21.11.2017 13:00:00 - - - - - - - - - 0,2
21.11.2017 12:00:00 10,9 10,2 39 21 57 31 SW 1004,0 16 0,6
21.11.2017 11:00:00 11,5 10,5 29 16 48 26 SW 1004,4 4,6 -
21.11.2017 10:00:00 11,6 10,7 35 19 50 27 SW 1004,4 7 0,0
21.11.2017 09:00:00 11,3 10,4 16 9 - - SW 1005,1 50 0,6
21.11.2017 08:00:00 10,7 9,7 13 7 - - SW 1005,4 50 0,4
21.11.2017 07:00:00 10,1 9,7 8 4 - - SSW 1005,2 29 1,2
21.11.2017 06:00:00 9,6 9,2 4 2 - - S 1005,5 21 0,6
21.11.2017 05:00:00 9,3 9,0 8 4 - - SSE 1005,7 35 0,6
21.11.2017 04:00:00 9,7 9,4 8 4 - - SE 1006,2 7 1,2
21.11.2017 03:00:00 10,0 9,6 11 6 - - SSW 1006,6 12 1,4
21.11.2017 02:00:00 10,1 9,6 11 6 - - SW 1007,2 15 0,8
21.11.2017 01:00:00 9,8 9,3 4 2 - - WSW 1007,8 22 0,8
21.11.2017 00:00:00 9,8 9,2 9 5 - - SW 1007,9 9 0,6
20.11.2017 23:00:00 9,5 9,0 8 4 - - SSW 1008,3 23 0,6
20.11.2017 22:00:00 9,4 8,9 5 3 - - WSW 1008,7 9 0,2
20.11.2017 21:00:00 9,7 8,6 8 4 - - W 1008,5 50 0,0
20.11.2017 20:00:00 9,6 8,6 8 4 - - WSW 1008,5 30 0,0
20.11.2017 19:00:00 9,4 8,3 8 4 - - W 1008,5 50 0,2
20.11.2017 18:00:00 8,6 7,4 5 3 - - ENE 1008,5 50 0,0
20.11.2017 17:00:00 9,4 8,3 8 4 - - NW 1008,3 8 0,0
20.11.2017 16:00:00 10,2 8,8 11 6 - - WNW 1007,9 4,1 0,4
20.11.2017 15:00:00 10,8 9,2 8 4 - - WNW 1007,8 21 0,2
20.11.2017 14:00:00 11,4 9,2 16 9 - - WNW 1007,4 16 0,0
20.11.2017 13:00:00 10,9 9,3 16 9 - - W 1007,3 6 0,2
20.11.2017 12:00:00 11,2 9,3 13 7 - - W 1006,9 13 0,2
20.11.2017 11:00:00 10,6 9,0 11 6 - - SW 1007,6 21 0,0
20.11.2017 10:00:00 10,8 8,5 13 7 - - WSW 1007,7 50 0,0
20.11.2017 09:00:00 10,4 8,9 16 9 - - WSW 1007,7 15 0,0
20.11.2017 08:00:00 10,2 8,9 8 4 - - SW 1008,0 50 0,2
20.11.2017 07:00:00 7,9 7,6 21 11 - - SSE 1008,5 6 0,0
20.11.2017 06:00:00 7,4 6,8 21 11 - - S 1009,0 11 -
20.11.2017 05:00:00 7,5 6,6 29 16 - - SSW 1009,7 8 0,4
20.11.2017 04:00:00 7,2 6,4 29 16 - - SSW 1010,8 9 0,4
20.11.2017 03:00:00 6,6 6,0 26 14 - - SW 1012,1 7 0,2
20.11.2017 02:00:00 4,3 4,1 13 7 - - SSE 1013,7 1,8 0,6
20.11.2017 01:00:00 3,9 3,6 13 7 - - S 1015,4 11 1,4
20.11.2017 00:00:00 4,1 3,5 18 10 - - SSW 1016,6 5 0,8
19.11.2017 23:00:00 4,2 2,5 11 6 - - S 1017,9 22 0,0
19.11.2017 22:00:00 3,8 2,9 11 6 - - S 1019,0 7 0,0
19.11.2017 21:00:00 4,0 1,6 13 7 - - SSE 1019,9 26 0,0
19.11.2017 20:00:00 3,7 1,6 11 6 - - S 1020,5 17 0,0
19.11.2017 19:00:00 3,4 0,3 11 6 - - S 1021,0 35 0,0
19.11.2017 18:00:00 3,1 0,2 15 8 - - SSW 1021,6 40 0,0
19.11.2017 17:00:00 4,0 0,6 15 8 - - SW 1021,8 40 0,0
19.11.2017 16:00:00 3,8 0,4 13 7 - - SW 1022,0 45 0,0
19.11.2017 15:00:00 3,5 1,0 4 2 - - S 1022,3 24 0,0
19.11.2017 14:00:00 3,2 0,3 5 3 - - SE 1023,0 17 0,0
19.11.2017 13:00:00 2,9 0,4 9 5 - - SSE 1023,3 35 0,0
19.11.2017 12:00:00 2,8 -0,1 11 6 - - SE 1023,6 40 0,2
19.11.2017 11:00:00 1,8 -0,8 11 6 - - SSE 1023,9 40 0,0
19.11.2017 10:00:00 1,1 -1,1 4 2 - - SSE 1024,1 40 0,0
19.11.2017 09:00:00 -3,7 -4,6 0 0 - - N 1024,2 40 0,0
19.11.2017 08:00:00 -4,0 -4,7 2 1 - - SW 1024,1 35 -
19.11.2017 07:00:00 -4,3 -5,1 2 1 - - NE 1023,9 35 0,0
19.11.2017 06:00:00 -4,1 -4,9 2 1 - - WSW 1023,8 40 0,0
19.11.2017 05:00:00 -3,8 -4,8 2 1 - - WSW 1023,6 40 0,0
19.11.2017 04:00:00 -3,3 -4,5 2 1 - - W 1023,5 35 0,0
19.11.2017 03:00:00 -2,3 -3,6 5 3 - - SW 1023,1 30 0,0
19.11.2017 02:00:00 -3,3 -5,9 8 4 - - N 1022,9 30 0,0
19.11.2017 01:00:00 -0,8 -3,3 5 3 - - NNW 1022,6 35 0,0
19.11.2017 00:00:00 0,6 -2,2 8 4 - - NW 1022,2 35 0,0
18.11.2017 23:00:00 0,4 -2,4 5 3 - - NW 1022,0 35 0,0
18.11.2017 22:00:00 1,5 -2,0 8 4 - - NNW 1021,4 40 0,0
18.11.2017 21:00:00 2,8 -1,5 16 9 - - NW 1021,1 45 0,0
18.11.2017 20:00:00 2,9 -1,2 15 8 - - NW 1020,8 45 0,0
18.11.2017 19:00:00 3,0 0,1 11 6 - - WNW 1020,4 40 0,0
18.11.2017 18:00:00 3,6 0,0 15 8 - - NW 1020,3 50 0,0
18.11.2017 17:00:00 3,7 0,7 13 7 - - NW 1020,1 45 0,0
18.11.2017 16:00:00 4,3 2,5 5 3 - - WNW 1019,7 20 0,2
18.11.2017 15:00:00 5,5 2,7 5 3 - - NNE 1019,8 35 0,0
18.11.2017 14:00:00 5,8 2,3 8 4 - - N 1019,9 35 0,0
18.11.2017 13:00:00 6,4 1,5 11 6 - - WNW 1019,8 45 0,0
18.11.2017 12:00:00 6,3 -0,2 22 12 - - NW 1019,9 50 0,0
18.11.2017 11:00:00 4,9 1,6 26 14 - - NNW 1020,4 35 0,0
18.11.2017 10:00:00 6,8 2,9 16 9 - - NNW 1019,9 45 0,0
18.11.2017 09:00:00 6,3 2,9 13 7 - - WNW 1020,0 45 0,0
18.11.2017 08:00:00 6,0 3,1 15 8 - - WNW 1019,5 45 0,0
18.11.2017 07:00:00 6,1 3,8 22 12 - - WNW 1019,2 35 0,2
18.11.2017 06:00:00 6,2 3,3 15 8 - - W 1018,8 17 0,0
18.11.2017 05:00:00 7,0 2,6 22 12 46 25 W 1018,9 45 0,0
18.11.2017 04:00:00 7,2 2,7 24 13 - - W 1019,1 45 0,0
18.11.2017 03:00:00 6,9 3,1 24 13 54 29 W 1019,7 45 0,0
18.11.2017 02:00:00 7,0 2,7 21 11 52 28 W 1020,1 50 0,0
18.11.2017 01:00:00 7,4 2,4 26 14 48 26 W 1020,6 50 0,0
18.11.2017 00:00:00 7,1 2,2 16 9 - - W 1021,3 45 0,0
17.11.2017 23:00:00 7,1 1,8 21 11 - - W 1021,8 50 0,0
17.11.2017 22:00:00 6,8 1,3 13 7 - - SW 1022,5 50 0,0
17.11.2017 21:00:00 6,7 2,0 11 6 - - WSW 1023,0 50 0,0
17.11.2017 20:00:00 6,3 2,8 15 8 - - WSW 1023,4 45 0,0
17.11.2017 19:00:00 5,9 3,2 11 6 - - WSW 1023,8 50 0,0
17.11.2017 18:00:00 5,1 2,9 16 9 - - W 1024,4 35 0,0
17.11.2017 17:00:00 5,4 2,4 16 9 - - W 1024,8 50 0,0
17.11.2017 16:00:00 5,1 2,8 16 9 - - W 1025,3 50 0,2
17.11.2017 15:00:00 6,4 2,6 11 6 - - WSW 1025,7 40 0,0
17.11.2017 14:00:00 7,2 2,0 13 7 - - SW 1025,5 50 0,0
17.11.2017 13:00:00 6,4 3,3 15 8 - - SW 1026,1 45 0,0
17.11.2017 12:00:00 6,5 2,1 15 8 - - WSW 1026,8 45 0,0
17.11.2017 11:00:00 6,4 1,6 15 8 - - W 1027,3 50 0,0
17.11.2017 10:00:00 5,3 2,6 5 3 - - E 1027,9 13 0,0
17.11.2017 09:00:00 4,8 2,8 11 6 - - SSW 1027,5 23 0,0
17.11.2017 08:00:00 3,8 1,8 11 6 - - WSW 1027,8 35 0,0
17.11.2017 07:00:00 3,4 1,7 15 8 - - WSW 1027,3 35 0,0
17.11.2017 06:00:00 2,5 1,2 4 2 - - WSW 1027,4 30 0,0
17.11.2017 05:00:00 2,2 1,0 11 6 - - S 1027,7 40 0,0
17.11.2017 04:00:00 2,7 1,1 2 1 - - WSW 1027,9 40 0,0
17.11.2017 03:00:00 2,1 0,3 8 4 - - WSW 1028,0 35 0,0
17.11.2017 02:00:00 2,5 0,9 5 3 - - NE 1028,0 35 0,0
17.11.2017 01:00:00 1,5 0,2 2 1 - - E 1028,0 35 0,0
17.11.2017 00:00:00 2,4 0,0 4 2 - - NE 1027,8 35 0,0
16.11.2017 23:00:00 1,5 -0,4 4 2 - - SW 1028,0 35 0,0
16.11.2017 22:00:00 3,5 0,4 5 3 - - S 1027,4 35 0,0
16.11.2017 21:00:00 2,7 -0,5 5 3 - - N 1026,7 35 0,0
16.11.2017 20:00:00 4,5 0,8 13 7 - - W 1025,9 40 0,0
16.11.2017 19:00:00 4,4 0,7 15 8 - - WNW 1025,7 35 0,0
16.11.2017 18:00:00 4,8 0,6 18 10 - - WNW 1025,0 35 0,0
16.11.2017 17:00:00 4,2 0,1 15 8 - - WNW 1024,4 35 0,0
16.11.2017 16:00:00 5,4 1,6 16 9 - - WNW 1023,8 15 0,0
16.11.2017 15:00:00 5,5 0,3 11 6 - - WNW 1022,9 35 0,0
16.11.2017 14:00:00 7,2 0,0 16 9 - - WNW 1022,0 40 0,0
16.11.2017 13:00:00 7,4 0,4 16 9 - - WNW 1020,9 40 0,0
16.11.2017 12:00:00 7,2 1,6 18 10 - - WNW 1020,1 35 0,0
16.11.2017 11:00:00 6,7 1,6 18 10 - - NW 1019,3 45 0,0
16.11.2017 10:00:00 6,6 3,2 22 12 - - NW 1018,3 40 0,0
16.11.2017 09:00:00 7,4 4,7 22 12 52 28 WNW 1016,8 30 0,4
16.11.2017 08:00:00 9,6 8,5 26 14 50 27 WSW 1014,2 2,7 1,0
16.11.2017 07:00:00 8,9 7,7 24 13 54 29 SSW 1014,6 3,5 0,6
16.11.2017 06:00:00 8,9 6,5 34 18 54 29 SW 1014,7 35 0,0
16.11.2017 05:00:00 9,2 6,7 39 21 61 33 SW 1015,0 40 0,0
16.11.2017 04:00:00 9,5 8,2 35 19 57 31 SW 1015,0 4,0 0,2
16.11.2017 03:00:00 9,4 8,4 35 19 55 30 SSW 1016,1 30 0,6
16.11.2017 02:00:00 8,7 8,2 24 13 - - SSW 1017,0 2,3 0,6
16.11.2017 01:00:00 8,7 8,3 26 14 - - SSW 1017,6 5 0,2
16.11.2017 00:00:00 8,4 8,3 29 16 46 25 SSW 1018,2 3,7 0,0
15.11.2017 23:00:00 8,1 7,8 16 9 - - S 1019,2 4,7 0,6
15.11.2017 22:00:00 7,9 7,5 15 8 - - S 1020,0 2,2 0,0
15.11.2017 21:00:00 7,8 7,2 11 6 - - SE 1020,3 3,6 0,0
15.11.2017 20:00:00 8,0 7,0 21 11 - - S 1020,9 6 0,0
15.11.2017 19:00:00 7,2 5,6 16 9 - - SSE 1021,3 22 -
15.11.2017 18:00:00 6,2 4,5 9 5 - - SSE 1021,7 40 0,0
15.11.2017 17:00:00 5,9 3,7 8 4 - - S 1022,1 40 0,0
15.11.2017 16:00:00 7,0 4,0 8 4 - - SSW 1022,2 40 0,0
15.11.2017 15:00:00 7,8 4,9 5 3 - - SSW 1023,0 40 0,0
15.11.2017 14:00:00 7,2 6,0 9 5 - - SE 1023,6 30 0,0
15.11.2017 13:00:00 7,4 5,5 5 3 - - S 1024,0 45 0,0

tt = temperature
td = dewpoint
ff = wind speed
fx = gusts
dd = wind direction
ppp = reduced air pressure
vv = visibility
rr = precipitation

Next stations